• In Romania
  • List of Countries
  • For 7 days
  • Water Temperature
  • Satellite Maps
  • Weather Map
  • Weather Widgets
  • user-avatar
    Login

    Hourly Weather Mayrhofen

    Today, 22 January, Monday

    Time Temperature Precipitation Wind Pressure Humidity
    00:00 -9°C° 0.3 mm 1 mps 611 mmHg 90%
    01:00 -8°C° 0 mm 2 mps 611 mmHg 90%
    02:00 -7°C° 1.6 mm 1 mps 611 mmHg 92%
    03:00 -6°C° 1.6 mm 1 mps 611 mmHg 94%
    04:00 -6°C° 1.6 mm 1 mps 611 mmHg 96%
    05:00 -4°C° 2.3 mm 1 mps 611 mmHg 96%
    06:00 -4°C° 2.3 mm 1 mps 611 mmHg 96%
    07:00 -5°C° 2.3 mm 2 mps 611 mmHg 96%
    08:00 -5°C° 1.7 mm 2 mps 611 mmHg 95%
    09:00 -4°C° 1.7 mm 2 mps 611 mmHg 95%
    10:00 -3°C° 1.7 mm 2 mps 611 mmHg 95%
    11:00 -1°C° 1.5 mm 1 mps 611 mmHg 95%
    12:00 0°C° 1.5 mm 1 mps 611 mmHg 96%
    13:00 +1°C° 1.5 mm 1 mps 611 mmHg 96%
    14:00 +1°C° 2.1 mm 1 mps 611 mmHg 96%
    15:00 +1°C° 2.1 mm 1 mps 611 mmHg 96%
    16:00 0°C° 2.1 mm 0 mps 611 mmHg 96%
    17:00 0°C° 2.6 mm 1 mps 611 mmHg 96%
    18:00 0°C° 2.6 mm 1 mps 611 mmHg 96%
    19:00 0°C° 2.6 mm 1 mps 612 mmHg 96%
    20:00 -2°C° 1.1 mm 2 mps 612 mmHg 96%
    21:00 -2°C° 1.1 mm 2 mps 613 mmHg 96%
    22:00 -2°C° 1.1 mm 2 mps 614 mmHg 96%
    23:00 -3°C° 0.1 mm 2 mps 614 mmHg 96%

    Tomorrow, 23 January, Tuesday

    Time Temperature Precipitation Wind Pressure Humidity
    00:00 -4°C° 0.1 mm 2 mps 614 mmHg 96%
    01:00 -4°C° 0.1 mm 2 mps 614 mmHg 95%
    02:00 -5°C° 0.1 mm 2 mps 615 mmHg 95%
    03:00 -5°C° 0.1 mm 2 mps 615 mmHg 94%
    04:00 -5°C° 0.1 mm 2 mps 615 mmHg 94%
    05:00 -6°C° 0.1 mm 2 mps 616 mmHg 94%
    06:00 -6°C° 0.1 mm 2 mps 616 mmHg 94%
    07:00 -7°C° 0.1 mm 2 mps 616 mmHg 94%
    08:00 -6°C° 0.1 mm 2 mps 617 mmHg 93%
    09:00 -5°C° 0.1 mm 2 mps 618 mmHg 93%
    10:00 -4°C° 0.1 mm 2 mps 619 mmHg 93%
    11:00 -3°C° 0 mm 2 mps 619 mmHg 92%
    12:00 -3°C° 0 mm 2 mps 619 mmHg 92%
    13:00 0°C° 0 mm 1 mps 619 mmHg 92%
    14:00 0°C° 0 mm 1 mps 619 mmHg 91%
    15:00 -1°C° 0 mm 1 mps 619 mmHg 91%
    16:00 -1°C° 0 mm 1 mps 619 mmHg 91%
    17:00 -2°C° 0 mm 1 mps 619 mmHg 85%
    18:00 -4°C° 0 mm 1 mps 619 mmHg 79%
    19:00 -6°C° 0 mm 1 mps 619 mmHg 73%
    20:00 -6°C° 0 mm 1 mps 619 mmHg 69%
    21:00 -6°C° 0 mm 1 mps 619 mmHg 65%
    22:00 -6°C° 0 mm 1 mps 619 mmHg 60%
    23:00 -6°C° 0 mm 1 mps 620 mmHg 61%

    Day after tomorrow, 24 January, Wednesday

    Time Temperature Precipitation Wind Pressure Humidity
    00:00 -6°C° 0 mm 1 mps 620 mmHg 61%
    01:00 -4°C° 0 mm 1 mps 620 mmHg 62%
    02:00 -3°C° 0 mm 1 mps 620 mmHg 63%
    03:00 -3°C° 0 mm 1 mps 621 mmHg 64%
    04:00 -2°C° 0 mm 1 mps 621 mmHg 65%
    05:00 -3°C° 0 mm 1 mps 620 mmHg 64%
    06:00 -3°C° 0 mm 1 mps 620 mmHg 64%
    07:00 -4°C° 0 mm 1 mps 620 mmHg 63%
    08:00 -2°C° 0 mm 1 mps 621 mmHg 67%
    09:00 -1°C° 0 mm 1 mps 621 mmHg 71%
    10:00 +1°C° 0 mm 1 mps 622 mmHg 75%
    11:00 -1°C° 0 mm 2 mps 622 mmHg 82%
    12:00 +1°C° 0 mm 2 mps 622 mmHg 88%
    13:00 +2°C° 0 mm 2 mps 621 mmHg 94%
    14:00 +1°C° 0 mm 2 mps 621 mmHg 92%
    15:00 +1°C° 0 mm 2 mps 621 mmHg 90%
    16:00 -1°C° 0 mm 2 mps 620 mmHg 88%
    17:00 -2°C° 0 mm 2 mps 620 mmHg 84%
    18:00 -3°C° 0 mm 2 mps 620 mmHg 80%
    19:00 -6°C° 0 mm 3 mps 619 mmHg 76%
    20:00 -6°C° 0 mm 3 mps 619 mmHg 75%
    21:00 -6°C° 0 mm 3 mps 619 mmHg 74%
    22:00 -6°C° 0 mm 3 mps 619 mmHg 73%
    23:00 -7°C° 0 mm 3 mps 619 mmHg 72%

    25 January, Thursday

    Time Temperature Precipitation Wind Pressure Humidity
    00:00 -7°C° 0 mm 3 mps 618 mmHg 72%
    01:00 -7°C° 0 mm 3 mps 618 mmHg 71%
    02:00 -6°C° 0 mm 2 mps 618 mmHg 71%
    03:00 -6°C° 0 mm 2 mps 618 mmHg 71%
    04:00 -6°C° 0 mm 2 mps 617 mmHg 71%
    05:00 -6°C° 0 mm 2 mps 617 mmHg 72%
    06:00 -6°C° 0 mm 2 mps 617 mmHg 72%
    07:00 -7°C° 0 mm 3 mps 617 mmHg 73%
    08:00 -6°C° 0 mm 3 mps 617 mmHg 75%
    09:00 -5°C° 0 mm 3 mps 617 mmHg 77%
    10:00 -4°C° 0 mm 3 mps 617 mmHg 78%
    11:00 -2°C° 0 mm 3 mps 617 mmHg 81%
    12:00 -1°C° 0 mm 3 mps 617 mmHg 84%
    13:00 -1°C° 0 mm 3 mps 617 mmHg 87%
    14:00 -1°C° 0 mm 3 mps 616 mmHg 89%
    15:00 -1°C° 0 mm 3 mps 616 mmHg 90%
    16:00 -2°C° 0 mm 3 mps 615 mmHg 92%
    17:00 -2°C° 0 mm 3 mps 615 mmHg 91%
    18:00 -4°C° 0 mm 3 mps 615 mmHg 91%
    19:00 -4°C° 0 mm 2 mps 615 mmHg 90%
    20:00 -5°C° 0 mm 3 mps 614 mmHg 90%
    21:00 -5°C° 0 mm 3 mps 614 mmHg 90%
    22:00 -5°C° 0 mm 3 mps 614 mmHg 90%
    23:00 -5°C° 0 mm 3 mps 614 mmHg 91%

    26 January, Friday

    Time Temperature Precipitation Wind Pressure Humidity
    00:00 -5°C° 0 mm 3 mps 614 mmHg 91%
    01:00 -4°C° 0 mm 2 mps 614 mmHg 91%
    02:00 -5°C° 0.1 mm 2 mps 614 mmHg 92%
    03:00 -5°C° 0.1 mm 2 mps 613 mmHg 92%
    04:00 -6°C° 0.1 mm 2 mps 613 mmHg 92%
    05:00 -6°C° 0.1 mm 2 mps 613 mmHg 93%
    06:00 -6°C° 0.1 mm 2 mps 612 mmHg 93%
    07:00 -6°C° 0.1 mm 2 mps 612 mmHg 93%
    08:00 -5°C° 0.1 mm 2 mps 613 mmHg 93%
    09:00 -4°C° 0.1 mm 2 mps 613 mmHg 93%
    10:00 -3°C° 0.1 mm 2 mps 614 mmHg 93%
    11:00 -2°C° 0.3 mm 2 mps 614 mmHg 94%
    12:00 -2°C° 0.3 mm 2 mps 614 mmHg 95%
    13:00 -2°C° 0.3 mm 2 mps 614 mmHg 96%
    14:00 -2°C° 1 mm 2 mps 614 mmHg 96%
    15:00 -2°C° 1 mm 2 mps 614 mmHg 97%
    16:00 -1°C° 1 mm 1 mps 614 mmHg 97%
    17:00 -1°C° 1.5 mm 1 mps 614 mmHg 97%
    18:00 -2°C° 1.5 mm 1 mps 615 mmHg 97%
    19:00 -2°C° 1.5 mm 1 mps 615 mmHg 97%
    20:00 -5°C° 2.1 mm 2 mps 615 mmHg 97%
    21:00 -5°C° 2.1 mm 2 mps 615 mmHg 97%
    22:00 -5°C° 2.1 mm 2 mps 616 mmHg 97%
    23:00 -6°C° 1.3 mm 2 mps 616 mmHg 97%

    27 January, Saturday

    Time Temperature Precipitation Wind Pressure Humidity
    00:00 -6°C° 1.3 mm 2 mps 616 mmHg 97%
    01:00 -6°C° 1.3 mm 2 mps 616 mmHg 96%
    02:00 -6°C° 1.4 mm 2 mps 616 mmHg 96%
    03:00 -6°C° 1.4 mm 2 mps 616 mmHg 96%
    04:00 -7°C° 1.4 mm 2 mps 617 mmHg 96%
    05:00 -7°C° 1.3 mm 2 mps 617 mmHg 96%
    06:00 -7°C° 1.3 mm 2 mps 617 mmHg 96%
    07:00 -7°C° 1.3 mm 2 mps 618 mmHg 96%
    08:00 -7°C° 0.7 mm 2 mps 618 mmHg 95%
    09:00 -6°C° 0.7 mm 2 mps 619 mmHg 94%
    10:00 -6°C° 0.7 mm 2 mps 620 mmHg 94%
    11:00 -5°C° 0.2 mm 2 mps 620 mmHg 93%
    12:00 -5°C° 0.2 mm 2 mps 621 mmHg 93%
    13:00 -4°C° 0.2 mm 2 mps 621 mmHg 93%
    14:00 -4°C° 0.2 mm 2 mps 621 mmHg 93%
    15:00 -4°C° 0.2 mm 2 mps 622 mmHg 93%
    16:00 -2°C° 0.2 mm 1 mps 622 mmHg 94%
    17:00 -3°C° 0.1 mm 1 mps 622 mmHg 94%
    18:00 -4°C° 0.1 mm 1 mps 622 mmHg 94%
    19:00 -4°C° 0.1 mm 1 mps 623 mmHg 94%
    20:00 -6°C° 0 mm 1 mps 623 mmHg 93%
    21:00 -6°C° 0 mm 1 mps 623 mmHg 92%
    22:00 -6°C° 0 mm 1 mps 623 mmHg 91%
    23:00 -7°C° 0 mm 1 mps 623 mmHg 90%
    Show more